| time (UTC) | temp F | wind direction | speed MPH | gust MPH | rain 1hr in | rain 24hr in | rain mn in | humidity % | barometer mb |
| 20260507164559 | 65 | 150 | 2.0 | 8.0 | 0.00 | 0.02 | 0.00 | 66 | 1012.8 |
| 20260507163057 | 65 | 241 | 2.0 | 7.0 | 0.00 | 0.02 | 0.00 | 63 | 1012.8 |
| 20260507161559 | 67 | 129 | 2.0 | 7.0 | 0.00 | 0.02 | 0.00 | 60 | 1012.7 |
| 20260507160015 | 66 | 178 | 1.0 | 6.0 | 0.00 | 0.02 | 0.00 | 60 | 1012.8 |
| 20260507154511 | 66 | 144 | 2.0 | 7.0 | 0.00 | 0.02 | 0.00 | 61 | 1012.6 |
| 20260507153010 | 67 | 18 | 4.0 | 9.0 | 0.00 | 0.02 | 0.00 | 59 | 1012.6 |
| 20260507151510 | 67 | 107 | 2.0 | 7.0 | 0.00 | 0.02 | 0.00 | 59 | 1012.5 |
| 20260507150012 | 66 | 194 | 1.0 | 9.0 | 0.00 | 0.02 | 0.00 | 60 | 1012.7 |
| 20260507144506 | 66 | 140 | 2.0 | 15.0 | 0.00 | 0.02 | 0.00 | 59 | 1012.8 |
| 20260507143005 | 67 | 234 | 4.0 | 11.0 | 0.00 | 0.02 | 0.00 | 57 | 1012.8 |
| 20260507141503 | 67 | 163 | 3.0 | 12.0 | 0.00 | 0.02 | 0.00 | 58 | 1013.0 |
| 20260507140002 | 67 | 327 | 3.0 | 9.0 | 0.00 | 0.02 | 0.00 | 56 | 1013.1 |
| 20260507134555 | 68 | 174 | 2.0 | 9.0 | 0.00 | 0.02 | 0.00 | 58 | 1013.2 |
| 20260507133053 | 67 | 98 | 3.0 | 9.0 | 0.00 | 0.02 | 0.00 | 57 | 1013.4 |
| 20260507131550 | 67 | 192 | 4.0 | 10.0 | 0.00 | 0.02 | 0.00 | 58 | 1013.5 |
| 20260507130052 | 66 | 173 | 4.0 | 12.0 | 0.00 | 0.02 | 0.00 | 59 | 1013.8 |
| 20260507124548 | 66 | 87 | 2.0 | 7.0 | 0.00 | 0.02 | 0.00 | 62 | 1013.7 |
| 20260507123048 | 67 | 168 | 4.0 | 11.0 | 0.00 | 0.02 | 0.00 | 63 | 1013.6 |
| 20260507121547 | 66 | 219 | 4.0 | 9.0 | 0.00 | 0.02 | 0.00 | 63 | 1013.6 |
| 20260507120014 | 68 | 127 | 2.0 | 8.0 | 0.00 | 0.02 | 0.00 | 61 | 1013.7 |
| 20260507114513 | 68 | 124 | 2.0 | 7.0 | 0.00 | 0.02 | 0.00 | 62 | 1013.7 |
| 20260507113011 | 68 | 126 | 3.0 | 8.0 | 0.00 | 0.02 | 0.00 | 61 | 1013.9 |
| 20260507111510 | 68 | 185 | 2.0 | 5.0 | 0.00 | 0.02 | 0.00 | 61 | 1014.0 |
| 20260507110012 | 68 | 130 | 3.0 | 8.0 | 0.00 | 0.02 | 0.00 | 63 | 1014.2 |
| 20260507104505 | 67 | 144 | 3.0 | 10.0 | 0.00 | 0.02 | 0.00 | 66 | 1014.2 |
| 20260507103003 | 65 | 174 | 2.0 | 11.0 | 0.00 | 0.02 | 0.00 | 69 | 1014.3 |
| 20260507101602 | 65 | 203 | 3.0 | 10.0 | 0.00 | 0.02 | 0.00 | 68 | 1014.5 |
| 20260507100052 | 65 | 211 | 2.0 | 10.0 | 0.00 | 0.02 | 0.00 | 70 | 1014.6 |
| 20260507094559 | 65 | 191 | 4.0 | 8.0 | 0.00 | 0.02 | 0.00 | 69 | 1014.7 |
| 20260507093049 | 65 | 130 | 2.0 | 7.0 | 0.00 | 0.02 | 0.00 | 71 | 1014.7 |
| 20260507091558 | 64 | 112 | 2.0 | 7.0 | 0.00 | 0.02 | 0.00 | 71 | 1014.5 |
| 20260507090106 | 63 | 119 | 2.0 | 7.0 | 0.00 | 0.02 | 0.00 | 73 | 1014.5 |
| 20260507084540 | 63 | 132 | 1.0 | 5.0 | 0.00 | 0.02 | 0.00 | 75 | 1014.6 |
| 20260507083041 | 62 | 99 | 1.0 | 6.0 | 0.00 | 0.02 | 0.00 | 77 | 1014.7 |
| 20260507081548 | 62 | 161 | 2.0 | 6.0 | 0.00 | 0.02 | 0.00 | 77 | 1014.8 |
| 20260507080031 | 61 | 159 | 1.0 | 7.0 | 0.00 | 0.02 | 0.00 | 82 | 1014.9 |
| 20260507074531 | 60 | 100 | 1.0 | 5.0 | 0.00 | 0.02 | 0.00 | 85 | 1015.0 |
| 20260507073026 | 59 | 79 | 1.0 | 5.0 | 0.00 | 0.02 | 0.00 | 86 | 1014.9 |
| 20260507071522 | 58 | 72 | 1.0 | 4.0 | 0.00 | 0.02 | 0.00 | 87 | 1014.8 |
| 20260507070015 | 57 | 123 | 0.0 | 0.0 | 0.00 | 0.02 | 0.00 | 89 | 1014.8 |
| 20260507064514 | 57 | 81 | 0.0 | 0.0 | 0.00 | 0.02 | 0.00 | 90 | 1014.7 |
| 20260507063010 | 56 | 61 | 0.0 | 0.0 | 0.00 | 0.02 | 0.00 | 92 | 1014.7 |
| 20260507061538 | 54 | 61 | 0.0 | 0.0 | 0.00 | 0.02 | 0.00 | 93 | 1014.6 |
| 20260507060037 | 53 | 60 | 0.0 | 0.0 | 0.00 | 0.02 | 0.00 | 94 | 1014.6 |
| 20260507054506 | 51 | 60 | 0.0 | 0.0 | 0.00 | 0.02 | 0.00 | 94 | 1014.4 |
| 20260507053006 | 51 | 58 | 0.0 | 0.0 | 0.00 | 0.02 | 0.00 | 95 | 1014.4 |
| 20260507051503 | 50 | 58 | 0.0 | 0.0 | 0.00 | 0.02 | 0.00 | 94 | 1014.3 |
| 20260507050006 | 49 | 57 | 0.0 | 0.0 | 0.00 | 0.02 | 0.00 | 94 | 1014.2 |
| 20260507044501 | 49 | 57 | 0.0 | 0.0 | 0.00 | 0.02 | 0.00 | 93 | 1014.1 |
| 20260507043101 | 49 | 57 | 0.0 | 0.0 | 0.00 | 0.02 | 0.00 | 94 | 1014.2 |
| 20260507041603 | 49 | 57 | 0.0 | 0.0 | 0.00 | 0.02 | 0.00 | 94 | 1014.1 |
| 20260507040023 | 49 | 58 | 0.0 | 0.0 | 0.00 | 0.02 | 0.00 | 93 | 1014.1 |
| 20260507034522 | 49 | 58 | 0.0 | 0.0 | 0.00 | 0.02 | 0.00 | 93 | 1014.1 |
| 20260507033018 | 50 | 57 | 0.0 | 0.0 | 0.00 | 0.02 | 0.00 | 93 | 1013.9 |
| 20260507031516 | 50 | 57 | 0.0 | 0.0 | 0.00 | 0.02 | 0.00 | 93 | 1014.0 |
| 20260507030014 | 50 | 58 | 0.0 | 0.0 | 0.00 | 0.02 | 0.00 | 93 | 1014.0 |
| 20260507024514 | 50 | 57 | 0.0 | 0.0 | 0.00 | 0.02 | 0.00 | 93 | 1014.1 |
| 20260507023010 | 51 | 57 | 0.0 | 0.0 | 0.00 | 0.02 | 0.00 | 93 | 1014.1 |
| 20260507021509 | 51 | 56 | 0.0 | 0.0 | 0.00 | 0.02 | 0.00 | 93 | 1014.0 |
| 20260507020008 | 51 | 56 | 0.0 | 0.0 | 0.00 | 0.03 | 0.00 | 94 | 1014.2 |
| 20260507014508 | 51 | 56 | 0.0 | 0.0 | 0.00 | 0.03 | 0.00 | 94 | 1014.1 |
| 20260507013059 | 51 | 56 | 0.0 | 0.0 | 0.00 | 0.03 | 0.00 | 94 | 1014.3 |
| 20260507011558 | 51 | 56 | 0.0 | 0.0 | 0.00 | 0.03 | 0.00 | 93 | 1014.4 |
| 20260507010027 | 52 | 56 | 0.0 | 0.0 | 0.00 | 0.03 | 0.00 | 94 | 1014.6 |
| 20260507004525 | 52 | 56 | 0.0 | 2.0 | 0.00 | 0.03 | 0.00 | 93 | 1014.6 |
| 20260507003023 | 52 | 56 | 0.0 | 1.0 | 0.00 | 0.03 | 0.00 | 94 | 1014.7 |
| 20260507001521 | 53 | 50 | 0.0 | 0.0 | 0.00 | 0.03 | 0.00 | 94 | 1014.8 |
| 20260507000025 | 53 | 50 | 0.0 | 0.0 | 0.00 | 0.03 | 0.00 | 93 | 1015.0 |
| 20260506234516 | 53 | 49 | 0.0 | 0.0 | 0.00 | 0.03 | 0.00 | 94 | 1015.0 |
| 20260506233013 | 54 | 49 | 0.0 | 0.0 | 0.00 | 0.03 | 0.00 | 93 | 1015.0 |
| 20260506231513 | 54 | 49 | 0.0 | 0.0 | 0.00 | 0.03 | 0.00 | 94 | 1015.1 |
| 20260506230010 | 54 | 49 | 0.0 | 0.0 | 0.00 | 0.03 | 0.00 | 94 | 1015.1 |
| 20260506224509 | 54 | 49 | 0.0 | 0.0 | 0.00 | 0.03 | 0.00 | 93 | 1015.1 |
| 20260506223008 | 54 | 49 | 0.0 | 0.0 | 0.00 | 0.03 | 0.00 | 93 | 1015.1 |
| 20260506221507 | 55 | 49 | 0.0 | 0.0 | 0.00 | 0.03 | 0.00 | 93 | 1015.2 |
| 20260506220057 | 55 | 49 | 0.0 | 0.0 | 0.00 | 0.03 | 0.03 | 93 | 1015.2 |
| 20260506214556 | 55 | 49 | 0.0 | 2.0 | 0.00 | 0.03 | 0.03 | 93 | 1015.1 |
| 20260506213053 | 55 | 50 | 0.0 | 3.0 | 0.00 | 0.03 | 0.03 | 93 | 1015.1 |
| 20260506211553 | 56 | 50 | 0.0 | 0.0 | 0.00 | 0.03 | 0.03 | 93 | 1015.1 |
| 20260506210020 | 56 | 49 | 1.0 | 4.0 | 0.00 | 0.03 | 0.03 | 93 | 1015.0 |
| 20260506204523 | 56 | 19 | 0.0 | 2.0 | 0.00 | 0.03 | 0.03 | 93 | 1014.9 |
| 20260506203014 | 56 | 19 | 0.0 | 1.0 | 0.00 | 0.03 | 0.03 | 93 | 1014.9 |
| 20260506201512 | 56 | 19 | 0.0 | 2.0 | 0.00 | 0.03 | 0.03 | 93 | 1014.6 |
| 20260506200010 | 56 | 18 | 0.0 | 2.0 | 0.00 | 0.03 | 0.03 | 92 | 1014.4 |
| 20260506194509 | 56 | 15 | 0.0 | 3.0 | 0.00 | 0.03 | 0.03 | 92 | 1014.2 |
| 20260506193005 | 56 | 16 | 0.0 | 3.0 | 0.00 | 0.03 | 0.03 | 92 | 1013.9 |
| 20260506191600 | 56 | 15 | 0.0 | 2.0 | 0.01 | 0.03 | 0.03 | 91 | 1013.7 |
| 20260506190048 | 56 | 320 | 0.0 | 3.0 | 0.02 | 0.04 | 0.03 | 91 | 1013.5 |
| 20260506184552 | 56 | 5 | 0.0 | 4.0 | 0.02 | 0.04 | 0.03 | 90 | 1013.4 |
| 20260506183043 | 57 | 5 | 1.0 | 4.0 | 0.02 | 0.04 | 0.03 | 89 | 1013.1 |
| 20260506181542 | 57 | 25 | 0.0 | 4.0 | 0.02 | 0.03 | 0.02 | 88 | 1013.2 |
| 20260506180040 | 57 | 33 | 3.0 | 6.0 | 0.00 | 0.18 | 0.01 | 86 | 1012.8 |
| 20260506174540 | 57 | 25 | 3.0 | 9.0 | 0.00 | 0.18 | 0.01 | 86 | 1012.7 |
| 20260506173046 | 57 | 48 | 3.0 | 7.0 | 0.00 | 0.18 | 0.01 | 84 | 1012.5 |
| 20260506171550 | 57 | 64 | 4.0 | 9.0 | 0.00 | 0.18 | 0.01 | 83 | 1012.3 |
| 20260506170138 | 58 | 51 | 4.0 | 14.0 | 0.00 | 0.18 | 0.01 | 81 | 1012.5 |